This is the latest recevied weather packets stored in our database for station/object KN6WGU. If no packets are shown the sender has not sent any weather packets the latest 10 day(s).
| Time | Temp. | Humidity | Pressure | Rain* | Wind** | Luminosity | Snow |
|---|---|---|---|---|---|---|---|
| 1787785394 | 25.56° C | 61% | 1005.6 hPa | 0 mm | - | 37 W/m² | - |
| 1787785093 | 25.56° C | 60% | 1005.7 hPa | 0 mm | - | 40 W/m² | - |
| 1787784789 | 26.11° C | 59% | 1005.7 hPa | 0 mm | - | 41 W/m² | - |
| 1787784487 | 26.11° C | 59% | 1005.8 hPa | 0 mm | - | 47 W/m² | - |
| 1787784182 | 26.11° C | 58% | 1006 hPa | 0 mm | - | 44 W/m² | - |
| 1787783878 | 26.11° C | 59% | 1006.2 hPa | 0 mm | - | 38 W/m² | - |
| 1787783574 | 26.11° C | 58% | 1006.1 hPa | 0 mm | - | 43 W/m² | - |
| 1787783268 | 26.11° C | 58% | 1006.1 hPa | 0 mm | - | 41 W/m² | - |
| 1787782963 | 26.67° C | 58% | 1006.1 hPa | 0 mm | - | 55 W/m² | - |
| 1787782662 | 26.67° C | 56% | 1006 hPa | 0 mm | - | 65 W/m² | - |
| 1787782358 | 26.67° C | 56% | 1005.9 hPa | 0 mm | - | 77 W/m² | - |
| 1787782053 | 26.67° C | 56% | 1006 hPa | 0 mm | - | 66 W/m² | - |
| 1787781749 | 26.67° C | 55% | 1006 hPa | 0 mm | - | 69 W/m² | - |
| 1787781446 | 26.67° C | 55% | 1006.1 hPa | 0 mm | - | 79 W/m² | - |
| 1787781146 | 26.67° C | 55% | 1006 hPa | 0 mm | - | 86 W/m² | - |
| 1787780845 | 26.67° C | 57% | 1006 hPa | 0 mm | - | 74 W/m² | - |
| 1787780545 | 26.67° C | 56% | 1006 hPa | 0 mm | - | 77 W/m² | - |
| 1787780240 | 26.67° C | 58% | 1005.9 hPa | 0 mm | - | 80 W/m² | - |
| 1787779936 | 26.67° C | 57% | 1006.2 hPa | 0 mm | - | 80 W/m² | - |
| 1787779636 | 26.67° C | 55% | 1006.3 hPa | 0 mm | - | 83 W/m² | - |
| 1787779330 | 26.67° C | 52% | 1006.2 hPa | 0 mm | - | 83 W/m² | - |
| 1787779029 | 26.67° C | 54% | 1006.4 hPa | 0 mm | - | 103 W/m² | - |
| 1787778720 | 26.67° C | 52% | 1006.1 hPa | 0 mm | - | 83 W/m² | - |
| 1787778416 | 26.67° C | 54% | 1006.1 hPa | 0 mm | - | 88 W/m² | - |
| 1787778110 | 26.67° C | 53% | 1006.3 hPa | 0 mm | - | 82 W/m² | - |
* Rain latest hour (hover to see other rain measurements)
** Current wind speed in m/s (hover to see current wind gust speed)